DLH048 EDDF-EDDV

Flight info

Callsign DLH048
Flight time 0h 34m
Altitude 23000
Route MARUN3W/25C MARUN Y153 WRB WRB1Z
Aircraft A319/M-SDE2E3FGIJ1LORWXYZ/HB1

Departure

Time 2026-05-05 18:49
Airport Frankfurt Main Airport (EDDF)

Arrival

Time 2026-05-05 19:23
Airport Hannover Airport (EDDV)
Time Latitude Longitude Altitude Speed Heading
2026-05-05 18:20 50.04982 8.59988 370 ft 0 kts 297°
2026-05-05 18:31 50.04979 8.60000 371 ft 2 kts 297°
2026-05-05 18:31 50.04966 8.60021 372 ft 3 kts 311°
2026-05-05 18:31 50.04956 8.60043 370 ft 4 kts 255°
2026-05-05 18:31 50.04962 8.60069 370 ft 1 kts 250°
2026-05-05 18:32 50.04955 8.60040 370 ft 4 kts 250°
2026-05-05 18:32 50.04946 8.60001 370 ft 4 kts 250°
2026-05-05 18:32 50.04936 8.59961 370 ft 4 kts 250°
2026-05-05 18:32 50.04927 8.59922 370 ft 4 kts 250°
2026-05-05 18:33 50.04921 8.59895 370 ft 1 kts 250°
2026-05-05 18:41 50.04917 8.59878 370 ft 4 kts 250°
2026-05-05 18:41 50.04902 8.59815 370 ft 9 kts 250°
2026-05-05 18:41 50.04878 8.59713 371 ft 12 kts 250°
2026-05-05 18:42 50.04848 8.59587 370 ft 12 kts 254°
2026-05-05 18:42 50.04860 8.59457 371 ft 13 kts 292°
2026-05-05 18:42 50.04857 8.59312 371 ft 15 kts 249°
2026-05-05 18:42 50.04821 8.59160 369 ft 15 kts 250°
2026-05-05 18:43 50.04783 8.59002 370 ft 15 kts 249°
2026-05-05 18:43 50.04757 8.58895 372 ft 8 kts 249°
2026-05-05 18:43 50.04737 8.58806 368 ft 9 kts 249°
2026-05-05 18:43 50.04688 8.58765 370 ft 7 kts 187°
2026-05-05 18:44 50.04641 8.58757 370 ft 2 kts 186°
2026-05-05 18:44 50.04640 8.58757 370 ft 0 kts 186°
2026-05-05 18:47 50.04639 8.58757 370 ft 0 kts 186°
2026-05-05 18:47 50.04626 8.58753 370 ft 5 kts 192°
2026-05-05 18:47 50.04582 8.58711 371 ft 9 kts 220°
2026-05-05 18:47 50.04532 8.58650 371 ft 9 kts 211°
2026-05-05 18:48 50.04495 8.58614 371 ft 5 kts 230°
2026-05-05 18:48 50.04477 8.58544 370 ft 16 kts 249°
2026-05-05 18:48 50.04338 8.57965 367 ft 97 kts 250°
2026-05-05 18:48 50.04028 8.56672 473 ft 145 kts 249°
2026-05-05 18:49 50.03689 8.55240 1142 ft 141 kts 249°
2026-05-05 18:49 50.03346 8.53769 1681 ft 156 kts 250°
2026-05-05 18:49 50.02940 8.52052 2090 ft 177 kts 249°
2026-05-05 18:49 50.02442 8.50227 2616 ft 193 kts 237°
2026-05-05 18:50 50.01423 8.48793 3224 ft 204 kts 213°
2026-05-05 18:50 50.00071 8.48001 4001 ft 212 kts 192°
2026-05-05 18:50 49.98629 8.47657 5020 ft 208 kts 190°
2026-05-05 18:50 49.97198 8.47343 5980 ft 207 kts 190°
2026-05-05 18:51 49.95766 8.46969 6756 ft 213 kts 198°
2026-05-05 18:51 49.94520 8.45635 7178 ft 233 kts 237°
2026-05-05 18:51 49.93939 8.43175 7803 ft 253 kts 254°
2026-05-05 18:51 49.93528 8.40426 8142 ft 267 kts 262°
2026-05-05 18:52 49.93735 8.37551 8757 ft 274 kts 282°
2026-05-05 18:52 49.94251 8.34680 9738 ft 278 kts 283°
2026-05-05 18:52 49.94960 8.31852 10582 ft 287 kts 298°
2026-05-05 18:52 49.96346 8.29568 11431 ft 299 kts 323°
2026-05-05 18:53 49.98311 8.28403 12302 ft 310 kts 350°
2026-05-05 18:53 50.00462 8.28705 13299 ft 313 kts 12°
2026-05-05 18:53 50.02559 8.29561 14287 ft 309 kts 12°
2026-05-05 18:53 50.04646 8.30428 14971 ft 319 kts 13°
2026-05-05 18:54 50.06863 8.31346 15229 ft 341 kts 13°
2026-05-05 18:54 50.09225 8.32317 15471 ft 362 kts 13°
2026-05-05 18:54 50.11720 8.33350 15730 ft 380 kts 15°
2026-05-05 18:54 50.14146 8.35122 15991 ft 391 kts 35°
2026-05-05 18:55 50.16108 8.38100 16240 ft 402 kts 52°
2026-05-05 18:55 50.17847 8.41618 16488 ft 417 kts 54°
2026-05-05 18:55 50.19613 8.45244 17166 ft 417 kts 54°
2026-05-05 18:55 50.21360 8.48816 18204 ft 411 kts 54°
2026-05-05 18:56 50.23088 8.52324 19148 ft 404 kts 54°
2026-05-05 18:56 50.24791 8.55767 20123 ft 397 kts 54°
2026-05-05 18:56 50.26464 8.59139 21127 ft 389 kts 54°
2026-05-05 18:56 50.28122 8.62470 21836 ft 392 kts 54°
2026-05-05 18:57 50.29822 8.65887 22112 ft 405 kts 54°
2026-05-05 18:57 50.31571 8.69404 22382 ft 414 kts 54°
2026-05-05 18:57 50.33348 8.72978 22641 ft 417 kts 54°
2026-05-05 18:57 50.35160 8.76595 22803 ft 420 kts 54°
2026-05-05 18:58 50.36946 8.80158 22827 ft 420 kts 54°
2026-05-05 18:58 50.38747 8.83756 22828 ft 420 kts 54°
2026-05-05 18:58 50.40525 8.87311 22826 ft 420 kts 54°
2026-05-05 18:58 50.42324 8.90910 22827 ft 420 kts 54°
2026-05-05 18:59 50.44122 8.94512 22829 ft 420 kts 54°
2026-05-05 18:59 50.45921 8.98116 22824 ft 419 kts 54°
2026-05-05 18:59 50.47724 9.01723 22825 ft 422 kts 53°
2026-05-05 18:59 50.49877 9.04976 22825 ft 438 kts 37°
2026-05-05 19:00 50.52607 9.07158 22815 ft 445 kts 19°
2026-05-05 19:00 50.55675 9.07937 22825 ft 451 kts
2026-05-05 19:00 50.58826 9.07829 22823 ft 453 kts 359°
2026-05-05 19:00 50.61978 9.07677 22823 ft 454 kts 359°
2026-05-05 19:01 50.65134 9.07521 22820 ft 454 kts 359°
2026-05-05 19:01 50.68286 9.07368 22819 ft 454 kts 359°
2026-05-05 19:01 50.71443 9.07219 22816 ft 453 kts 359°
2026-05-05 19:01 50.74595 9.07159 22816 ft 453 kts
2026-05-05 19:02 50.77750 9.07241 22820 ft 453 kts
2026-05-05 19:02 50.80902 9.07419 22815 ft 453 kts
2026-05-05 19:02 50.84051 9.07638 22812 ft 453 kts
2026-05-05 19:02 50.87227 9.07857 22813 ft 460 kts
2026-05-05 19:03 50.90432 9.08053 22808 ft 462 kts
2026-05-05 19:03 50.93645 9.08220 22811 ft 462 kts
2026-05-05 19:03 50.96857 9.08361 22812 ft 462 kts
2026-05-05 19:03 51.00071 9.08488 22807 ft 462 kts
2026-05-05 19:04 51.03282 9.08612 22813 ft 462 kts
2026-05-05 19:04 51.06499 9.08742 22811 ft 462 kts
2026-05-05 19:04 51.09716 9.08884 22812 ft 462 kts
2026-05-05 19:04 51.12930 9.09028 22811 ft 462 kts
2026-05-05 19:05 51.16146 9.09173 22807 ft 462 kts
2026-05-05 19:05 51.19358 9.09318 22805 ft 462 kts
2026-05-05 19:05 51.22570 9.09467 22808 ft 462 kts
2026-05-05 19:05 51.25787 9.09616 22806 ft 462 kts
2026-05-05 19:06 51.29001 9.09762 22795 ft 463 kts
2026-05-05 19:06 51.32217 9.09924 22795 ft 463 kts
2026-05-05 19:06 51.35435 9.10117 22794 ft 463 kts
2026-05-05 19:06 51.38655 9.10329 22796 ft 463 kts
2026-05-05 19:07 51.41874 9.10549 22793 ft 463 kts
2026-05-05 19:07 51.45092 9.10762 22795 ft 463 kts
2026-05-05 19:07 51.48310 9.10965 22787 ft 463 kts
2026-05-05 19:07 51.51499 9.11286 22134 ft 457 kts
2026-05-05 19:08 51.54642 9.11944 21366 ft 453 kts
2026-05-05 19:08 51.57747 9.12608 20643 ft 448 kts
2026-05-05 19:08 51.60813 9.13272 19942 ft 442 kts
2026-05-05 19:08 51.63848 9.13935 19270 ft 437 kts
2026-05-05 19:09 51.66844 9.14588 18634 ft 433 kts
2026-05-05 19:09 51.69816 9.15234 18015 ft 429 kts
2026-05-05 19:09 51.72763 9.15871 17291 ft 426 kts
2026-05-05 19:09 51.75687 9.16501 16677 ft 422 kts
2026-05-05 19:10 51.78586 9.17127 16122 ft 418 kts
2026-05-05 19:10 51.81448 9.17750 15579 ft 413 kts
2026-05-05 19:10 51.84279 9.18365 15020 ft 409 kts
2026-05-05 19:10 51.87079 9.18974 14461 ft 404 kts
2026-05-05 19:11 51.89860 9.19580 13899 ft 401 kts
2026-05-05 19:11 51.92608 9.20182 13226 ft 398 kts
2026-05-05 19:11 51.95366 9.20784 12204 ft 403 kts
2026-05-05 19:11 51.98149 9.21388 11550 ft 398 kts
2026-05-05 19:12 52.00836 9.21976 11302 ft 381 kts
2026-05-05 19:12 52.03412 9.22544 11053 ft 366 kts
2026-05-05 19:12 52.05885 9.23094 10813 ft 352 kts
2026-05-05 19:12 52.08269 9.23627 10565 ft 340 kts
2026-05-05 19:13 52.10578 9.24089 10325 ft 329 kts
2026-05-05 19:13 52.12827 9.24393 10086 ft 320 kts
2026-05-05 19:13 52.14981 9.24671 9925 ft 309 kts
2026-05-05 19:13 52.17081 9.24940 9782 ft 298 kts
2026-05-05 19:14 52.19131 9.25243 9460 ft 294 kts
2026-05-05 19:14 52.21160 9.25561 9095 ft 292 kts
2026-05-05 19:14 52.23170 9.25867 8733 ft 289 kts
2026-05-05 19:14 52.25164 9.26166 8359 ft 287 kts
2026-05-05 19:15 52.27146 9.26466 7978 ft 285 kts
2026-05-05 19:15 52.29116 9.26763 7609 ft 283 kts
2026-05-05 19:15 52.31067 9.27045 7256 ft 280 kts
2026-05-05 19:15 52.32999 9.26956 6887 ft 277 kts 347°
2026-05-05 19:16 52.34868 9.26224 6536 ft 275 kts 344°
2026-05-05 19:16 52.36716 9.25433 6181 ft 274 kts 344°
2026-05-05 19:16 52.38548 9.24634 5797 ft 272 kts 344°
2026-05-05 19:16 52.40399 9.24131 5425 ft 270 kts
2026-05-05 19:17 52.42173 9.24986 5076 ft 267 kts 29°
2026-05-05 19:17 52.43235 9.26042 4825 ft 265 kts 33°
2026-05-05 19:17 52.44736 9.27649 4431 ft 258 kts 34°
2026-05-05 19:17 52.46071 9.29480 4045 ft 246 kts 54°
2026-05-05 19:18 52.46919 9.31844 3681 ft 236 kts 63°
2026-05-05 19:18 52.47518 9.34248 3434 ft 222 kts 79°
2026-05-05 19:18 52.47558 9.36715 3190 ft 214 kts 92°
2026-05-05 19:18 52.47498 9.39101 3030 ft 205 kts 92°
2026-05-05 19:19 52.47440 9.41361 2996 ft 192 kts 92°
2026-05-05 19:19 52.47383 9.43519 2785 ft 188 kts 91°
2026-05-05 19:19 52.47339 9.45648 2555 ft 186 kts 92°
2026-05-05 19:19 52.47282 9.47743 2322 ft 180 kts 92°
2026-05-05 19:20 52.47236 9.49693 2086 ft 168 kts 91°
2026-05-05 19:20 52.47188 9.51543 1852 ft 158 kts 90°
2026-05-05 19:20 52.47144 9.53277 1628 ft 143 kts 90°
2026-05-05 19:20 52.47105 9.54787 1463 ft 126 kts 91°
2026-05-05 19:21 52.47068 9.56170 1298 ft 119 kts 90°
2026-05-05 19:21 52.47035 9.57515 1133 ft 119 kts 89°
2026-05-05 19:21 52.46997 9.58875 992 ft 119 kts 90°
2026-05-05 19:21 52.46961 9.60247 818 ft 122 kts 90°
2026-05-05 19:22 52.46923 9.61636 662 ft 121 kts 89°
2026-05-05 19:22 52.46888 9.63023 488 ft 123 kts 90°
2026-05-05 19:22 52.46847 9.64430 325 ft 123 kts 90°
2026-05-05 19:22 52.46809 9.65826 178 ft 117 kts 91°
2026-05-05 19:23 52.46778 9.66963 175 ft 78 kts 92°
2026-05-05 19:23 52.46760 9.67640 174 ft 38 kts 92°
2026-05-05 19:23 52.46748 9.67948 175 ft 21 kts 102°
2026-05-05 19:23 52.46682 9.68113 177 ft 14 kts 141°
2026-05-05 19:24 52.46611 9.68201 178 ft 13 kts 142°
2026-05-05 19:24 52.46530 9.68302 178 ft 16 kts 142°
2026-05-05 19:24 52.46435 9.68421 178 ft 19 kts 143°
2026-05-05 19:24 52.46325 9.68559 179 ft 21 kts 142°
2026-05-05 19:25 52.46203 9.68712 179 ft 24 kts 142°
2026-05-05 19:25 52.46073 9.68877 179 ft 22 kts 142°
2026-05-05 19:25 52.45962 9.69016 179 ft 19 kts 143°
2026-05-05 19:25 52.45875 9.69122 179 ft 13 kts 144°
2026-05-05 19:26 52.45821 9.69189 179 ft 10 kts 141°
2026-05-05 19:26 52.45768 9.69261 179 ft 11 kts 128°
2026-05-05 19:26 52.45776 9.69332 179 ft 6 kts 32°
2026-05-05 19:26 52.45815 9.69371 179 ft 4 kts 31°
2026-05-05 19:27 52.45831 9.69386 179 ft 3 kts 30°
2026-05-05 19:27 52.45839 9.69394 179 ft 0 kts 30°